User: anonymous   Login
Location: Unspecified
(0.0000°N, 0.0000°E)
Time: 05:48:06
(UTC+00:00)
Language:

FORMOSAT 3E - Orbit

View from above orbital plane
View from above orbital plane
View from above satellite
View from above satellite

Ground track
Ground track

The orbit data is extracted from the following two-line orbital elements,

1 29051U 06011E   17344.62844994 +.00000069 +00000-0 +42635-4 0  9999
2 29051 072.0038 169.3325 0066674 074.9916 285.8587 14.28636412610819
Epoch (UTC): 10 December 2017 15:04:58
Eccentricity: 0.0066674
inclination: 72.0038°
perigee height: 748 km
apogee height: 844 km
right ascension of ascending node: 169.3325°
argument of perigee: 74.9916°
revolutions per day: 14.28636412
mean anomaly at epoch: 285.8587°
orbit number at epoch: 61081

The dashed part of the orbit path shows where the satellite is in the earth's shadow,  

DLR